Weather History for Toledo, OH

Change the Weather History Date:

Friday, January 18, 2013

  Actual Average Record
Temperature  
Mean Temperature 28 °F 25 °F  
Max Temperature 36 °F 32 °F 62 °F (1996)
Min Temperature 20 °F 18 °F -16 °F (1994)
Degree Days  
Heating Degree Days 37 40  
Month to date heating degree days 633 711  
Since 1 July heating degree days 2884 3036  
Cooling Degree Days 0 0  
Month to date cooling degree days 0 0  
Year to date cooling degree days 0 0  
Moisture  
Dew Point 16 °F    
Average Humidity 62    
Maximum Humidity 77    
Minimum Humidity 47    
Precipitation  
Precipitation T in 0.06 in 0.28 in (1975)
Month to date precipitation 2.77 1.26  
Year to date precipitation 2.77 1.26  
Snow  
Snow T in 0.40 in - ()
Month to date snowfall T 6.5  
Since 1 July snowfall 7.0 16.0  
Snow Depth 0.00 in    
Sea Level Pressure  
Sea Level Pressure 30.32 in    
Wind  
Wind Speed 11 mph (SSW)    
Max Wind Speed 24 mph    
Max Gust Speed 35 mph    
Visibility 10 miles    
Events Snow    
T = Trace of Precipitation, MM = Missing Value Source: NWS Daily Summary

Daily Weather History Graph

Daily Weather History Graph

Search for Another Location

Airport:

Trip Planner

Search our weather history database for the weather conditions in past years. The results will help you decide how hot, cold, wet, or windy it might be!

Date:

Astronomy

Jan. 18, 2013 Rise Set
Actual Time 7:57 AM EST 5:33 PM EST
Civil Twilight 7:27 AM EST 6:04 PM EST
Nautical Twilight 6:53 AM EST 6:38 PM EST
Astronomical Twilight 6:20 AM EST 7:11 PM EST
Moon 11:29 AM EST (1/18) 12:29 AM EST (1/18)
Length of Visible Light 10h 36m
Length of Day
9h 36m
Waxing Crescent, 47% of the Moon is Illuminated
Jan 18
Waxing Crescent
Jan 18
First Quarter
Jan 26
Full
Feb 3
Last Quarter
Feb 10
New

Hourly Weather History & Observations

Time (EST) Temp. Windchill Dew Point Humidity Pressure Visibility Wind Dir Wind Speed Gust Speed Precip Events Conditions
12:52 AM 19.9 °F 11.1 °F 9.0 °F 62% 30.38 in 10.0 mi SW 6.9 mph - N/A   Overcast
1:52 AM 21.0 °F 14.6 °F 10.9 °F 65% 30.40 in 10.0 mi SW 4.6 mph - N/A   Overcast
2:52 AM 21.9 °F 13.4 °F 14.0 °F 72% 30.43 in 10.0 mi WSW 6.9 mph - N/A   Overcast
3:52 AM 21.9 °F 15.7 °F 15.1 °F 75% 30.43 in 9.0 mi WSW 4.6 mph - 0.00 in Snow Light Snow
4:52 AM 21.9 °F - 15.1 °F 75% 30.43 in 10.0 mi Calm Calm - 0.00 in   Overcast
5:17 AM 21.2 °F 16.4 °F 15.8 °F 80% 30.40 in 10.0 mi South 3.5 mph - N/A   Overcast
5:49 AM 21.2 °F - 15.8 °F 80% 30.41 in 10.0 mi Calm Calm - N/A   Overcast
5:52 AM 21.9 °F - 16.0 °F 78% 30.44 in 10.0 mi Calm Calm - N/A   Overcast
6:52 AM 21.0 °F 16.2 °F 15.1 °F 78% 30.45 in 10.0 mi SSW 3.5 mph - N/A   Mostly Cloudy
7:52 AM 21.0 °F - 15.1 °F 78% 30.47 in 10.0 mi Calm Calm - N/A   Clear
8:52 AM 21.9 °F 13.4 °F 15.1 °F 75% 30.47 in 10.0 mi SSW 6.9 mph - N/A   Clear
9:52 AM 24.1 °F 15.2 °F 14.0 °F 65% 30.48 in 10.0 mi SW 8.1 mph - N/A   Overcast
10:52 AM 27.0 °F 18.7 °F 15.1 °F 61% 30.46 in 10.0 mi SW 8.1 mph - N/A   Scattered Clouds
11:52 AM 28.0 °F 18.6 °F 14.0 °F 56% 30.43 in 10.0 mi SW 10.4 mph - N/A   Overcast
12:52 PM 28.9 °F 18.6 °F 15.1 °F 56% 30.37 in 10.0 mi SSW 12.7 mph 19.6 mph N/A   Overcast
1:52 PM 30.9 °F 21.7 °F 16.0 °F 54% 30.33 in 10.0 mi SSW 11.5 mph 21.9 mph N/A   Clear
2:52 PM 32.0 °F 20.5 °F 17.1 °F 54% 30.29 in 10.0 mi SSW 18.4 mph 23.0 mph N/A   Clear
3:52 PM 32.0 °F 21.6 °F 18.0 °F 56% 30.25 in 10.0 mi SSW 15.0 mph 23.0 mph N/A   Clear
4:52 PM 34.0 °F 24.2 °F 19.0 °F 54% 30.22 in 10.0 mi SSW 15.0 mph 25.3 mph N/A   Clear
5:52 PM 33.1 °F 22.6 °F 18.0 °F 54% 30.19 in 10.0 mi SSW 16.1 mph 24.2 mph N/A   Clear
6:52 PM 33.1 °F 22.2 °F 17.1 °F 52% 30.16 in 10.0 mi SSW 17.3 mph 27.6 mph N/A   Partly Cloudy
7:52 PM 34.0 °F 22.7 °F 18.0 °F 52% 30.12 in 10.0 mi SSW 19.6 mph 34.5 mph N/A   Clear
8:52 PM 35.1 °F 23.8 °F 18.0 °F 50% 30.09 in 10.0 mi SSW 20.7 mph 31.1 mph N/A   Clear
9:52 PM 35.1 °F 24.8 °F 19.0 °F 52% 30.08 in 10.0 mi SSW 17.3 mph 26.5 mph N/A   Clear
10:52 PM 36.0 °F 25.6 °F 19.9 °F 52% 30.08 in 10.0 mi SW 18.4 mph 23.0 mph N/A   Clear
11:52 PM 36.0 °F 26.0 °F 21.0 °F 55% 30.05 in 10.0 mi SW 17.3 mph 25.3 mph N/A   Clear